STARLINK Y (44257 NORAD) Tracking and Keplerian Element Data

This shows tracking and keplerian element data for the satellite.

Feedback or suggestion? Click here.




ElementValue
Catalog44257
NameSTARLINK Y
Epoch Orbit374
Epoch Day173.93000342
Epoch Year2019
RAAN36.0174
Inclination53.0034
Eccentricity0.0002107
Argument of Perigee89.1833
Mean Anonmoly270.9406
Mean Motion15.27186959
Decay Rate4.43E-05
L11 44257U 19029Y 19173.93000342 .00004430 00000-0 17681-3 0 9992
L22 44257 53.0034 36.0174 0002107 89.1833 270.9406 15.27186959 3747

Live tracking and technical data element details for STARLINK Y (NORAD 44257). STARLINK Y can be tracked NOW for your location showing map with azimuth and elevation plus other details from your city location.

Track the satellite on the map from your city or location and see movement details for azimuth, elevation, latitude, longitude, range, height, and movement on the map or in text.







IsCatalogInMostPopularTable: catalog: 44257, numindb: 38
Update: records affected: 1



GetName: 44257 STARLINK Y

Hit Count: updated at: Fri, 19 Jul 2019 07:52:19 GMT